[[{"header":{"parameterUnit":"m.s-1","parameterCategory":1,"la1":30.2992,"la2":30.254,"lo1":-89.0895,"lo2":-89.0443,"dy":0.0025,"dx":0.0025,"nx":19,"ny":19,"refTime":"2026-04-11T21:00:00:Z","depth":0,"parameterNumber":2,"parameterNumberName":"U-component_of_WINDS"},"data":[0,0,0,-4.4876,-4.4879,-4.5,-4.5,-4.5168,-4.517,0,0,0,0,0,0,0,0,0,0,0,-4.4849,-4.4851,-4.4876,-4.4879,-4.5,-4.5,-4.5168,-4.517,0,0,0,0,0,0,0,0,0,0,0,-4.4848,-4.485,-4.4852,-4.488,-4.5,-4.5,-4.5167,-4.5071,0,0,0,0,0,0,0,0,0,0,-4.4951,-4.4935,-4.485,-4.4852,-4.488,-4.5,-4.5,-4.5066,-4.5077,-4.5119,0,-4.516,0,-4.5168,-4.5182,-4.5182,0,0,0,-4.4872,-4.4927,-4.4951,-4.4852,-4.4882,-4.4999,-4.4943,-4.5072,-4.5084,-4.5134,-4.5162,-4.5168,-4.517,-4.5183,-4.5184,-4.5452,-4.5454,0,0,-4.4865,-4.4875,-4.4943,-4.496,-4.4943,-4.4939,-4.4947,-4.5079,-4.5111,-4.5163,-4.5172,-4.5173,-4.5184,-4.5185,-4.5451,-4.5453,0,0,0,-4.4851,-4.4871,-4.4892,-4.4953,-4.4974,-4.4943,-4.4952,-4.5105,-4.5111,-4.5173,-4.5175,-4.5185,-4.5187,-4.5449,-4.5451,-4.5539,0,0,0,-4.4847,-4.4863,-4.489,-4.4897,-4.4972,-4.5041,-4.4975,-4.5102,-4.5116,-4.5174,-4.5185,-4.5189,-4.5447,-4.545,-4.5533,-4.5578,0,0,0,-4.4838,-4.4861,-4.4882,-4.4897,-4.495,-4.5039,-4.5052,-4.5104,-4.5118,-4.5183,-4.519,-4.5446,-4.545,-4.5527,-4.5569,-4.565,0,0,0,-4.4832,-4.4958,-4.4884,-4.5026,-4.4949,-4.5093,-4.5051,-4.5158,-4.5224,-4.5186,-4.5447,-4.5451,-4.5525,-4.5563,-4.5645,-4.572,-4.5753,0,0,-4.4996,-4.4978,-4.5061,-4.4998,-4.5158,-4.5074,-4.5246,-4.5296,-4.5293,-4.5399,-4.5405,-4.5535,-4.5568,-4.5649,-4.5936,-4.5962,0,0,0,-4.5116,-4.5176,-4.5216,-4.528,-4.5323,-4.5362,-4.5386,-4.5405,-4.5494,-4.535,-4.5587,-4.5606,-4.5654,-4.5689,-4.5711,-4.575,-4.5468,-4.5468,-4.5468,-4.5362,-4.5352,-4.5488,-4.5493,-4.5556,-4.5579,-4.5629,-4.5658,-4.5629,-4.5685,-4.5716,-4.5891,-4.5933,-4.595,-4.5991,-4.5756,-4.5757,-4.5757,-4.5757,-4.5601,-4.5683,-4.5643,-4.576,-4.5749,-4.5847,-4.5875,-4.5851,-4.594,-4.5867,-4.5908,-4.5828,-4.5979,-4.6014,-4.5764,-4.5763,-4.5762,-4.5761,-4.5761,-4.5759,-4.5797,-4.5819,-4.591,-4.5982,-4.5983,-4.6071,-4.6057,-4.6045,-4.6086,-4.6116,-4.6115,-4.611,-4.6102,-4.6103,-4.6103,-4.6104,-4.6104,-4.6105,-4.5914,-4.5936,-4.6012,-4.6069,-4.6108,-4.6158,-4.6185,-4.6223,-4.6261,-4.6244,-4.6245,-4.6209,-4.5996,-4.5942,-4.6114,-4.6112,-4.6111,-4.611,-4.6109,-4.6156,-4.61,-4.6217,-4.6257,-4.6322,-4.6394,-4.6377,-4.6456,-4.6486,-4.6529,-4.6486,-4.6332,-4.6311,-4.6294,-4.6248,-4.6489,-4.6489,-4.6489,-4.6489,-4.6289,-4.6278,-4.6394,-4.6459,-4.652,-4.6517,-4.6649,-4.6671,-4.6684,-4.6702,-4.6666,-4.6605,-4.6588,-4.6578,-4.6554,-4.6511,-4.6813,-4.6814,-4.6814,-4.6436,-4.6431,-4.6546,-4.6559,-4.661,-4.6654,-4.6777,-4.6851,-4.6855,-4.6827,-4.6715,-4.6701,-4.6604,-4.6573,-4.6539,-4.6502,-4.6424,0,0]},{"header":{"parameterUnit":"m.s-1","parameterCategory":1,"la1":30.2992,"la2":30.254,"lo1":-89.0895,"lo2":-89.0443,"dy":0.0025,"dx":0.0025,"nx":19,"ny":19,"refTime":"2026-04-11T21:00:00:Z","depth":0,"parameterNumber":3,"parameterNumberName":"V-component_of_WINDS"},"data":[0,0,0,3.0853,3.0855,3.0963,3.0963,3.1085,3.1086,0,0,0,0,0,0,0,0,0,0,0,3.0814,3.0815,3.0853,3.0856,3.0963,3.0963,3.1085,3.1086,0,0,0,0,0,0,0,0,0,0,0,3.0814,3.0815,3.0816,3.0856,3.0963,3.0963,3.1085,3.1009,0,0,0,0,0,0,0,0,0,0,3.0907,3.0865,3.0815,3.0816,3.0856,3.0962,3.0963,3.1005,3.1014,3.1031,0,3.1047,0,3.1069,3.1094,3.1094,0,0,0,3.086,3.0858,3.0894,3.0816,3.0857,3.0962,3.0916,3.101,3.1019,3.1042,3.1049,3.1054,3.1071,3.1095,3.1095,3.1188,3.1189,0,0,3.0854,3.0829,3.0887,3.0899,3.0884,3.0912,3.0919,3.1016,3.1021,3.1049,3.1057,3.1073,3.1095,3.1096,3.1188,3.1188,0,0,0,3.0834,3.0825,3.0858,3.0894,3.0915,3.0915,3.0923,3.1016,3.103,3.1058,3.1074,3.1096,3.1097,3.1188,3.1188,3.1177,0,0,0,3.0831,3.0813,3.0856,3.0841,3.0913,3.0967,3.0921,3.1023,3.1035,3.1074,3.1096,3.1098,3.1188,3.1188,3.1177,3.1175,0,0,0,3.081,3.0811,3.0824,3.084,3.0885,3.0966,3.0985,3.1026,3.1044,3.1094,3.1099,3.1188,3.1188,3.1177,3.1175,3.1194,0,0,0,3.0779,3.081,3.0824,3.0865,3.0884,3.0959,3.0985,3.1041,3.1083,3.1097,3.1188,3.1188,3.1177,3.1175,3.1194,3.1206,3.1208,0,0,3.0805,3.0812,3.0839,3.0854,3.0921,3.0945,3.1009,3.1069,3.1095,3.1155,3.1158,3.1177,3.1175,3.1194,3.1231,3.1233,0,0,0,3.0838,3.0857,3.088,3.092,3.0969,3.1011,3.1064,3.1087,3.114,3.1122,3.1189,3.1189,3.1201,3.1208,3.1209,3.1222,3.119,3.119,3.119,3.0837,3.0872,3.0918,3.0966,3.1004,3.1061,3.1095,3.1135,3.1155,3.1171,3.1189,3.1208,3.1215,3.1216,3.1229,3.1198,3.1198,3.1198,3.1198,3.0878,3.091,3.0941,3.0997,3.1033,3.1079,3.1134,3.1148,3.1196,3.1196,3.1209,3.1207,3.1218,3.123,3.1197,3.1197,3.1197,3.1197,3.1197,3.0881,3.0903,3.0932,3.0996,3.104,3.1087,3.1133,3.1163,3.1191,3.1203,3.1226,3.1226,3.1231,3.1212,3.1212,3.1212,3.1212,3.1212,3.1212,3.0873,3.0907,3.0943,3.0999,3.1031,3.1075,3.1133,3.1164,3.1205,3.1223,3.1224,3.1243,3.1213,3.1205,3.1213,3.1213,3.1213,3.1213,3.1213,3.0901,3.0901,3.0956,3.0988,3.1058,3.1101,3.114,3.12,3.123,3.1251,3.1269,3.1242,3.1251,3.125,3.1243,3.1261,3.1261,3.1261,3.1261,3.0904,3.0913,3.0979,3.1027,3.1078,3.112,3.1181,3.1227,3.1273,3.1294,3.1296,3.1289,3.1287,3.1298,3.1295,3.129,3.132,3.132,3.132,3.0924,3.094,3.0987,3.1036,3.1093,3.1142,3.12,3.1253,3.1306,3.1323,3.131,3.1308,3.1299,3.1294,3.1309,3.1305,3.1296,0,0]}]]